Location: Drocourt
(49.0571°N, 1.7669°E)
Time: 21:36:26
(UTC+00:00)

S-56A Canister/Altair - Pass Details

Date: 13 April 2024
Orbit: 638 x 2488 km, 38.9° (Epoch: 20 May)

Event Time Altitude Azimuth Distance (km) Brightness Sun altitude
Rises 01:24:12 0° 276° (W) 5,292 11.6 -28.5°
Enters shadow 01:27:58 - 264° (W) 4,637 11.2 -28.2°
Reaches altitude 10° 01:28:30 10° 262° (W) 4,561 - -28.1°
Maximum altitude 01:37:25 22° 219° (SW) 4,025 - -27.5°
Drops below altitude 10° 01:47:27 10° 176° (S) 5,139 - -26.6°
Sets 01:52:47 0° 164° (SSE) 6,123 - -26.1°
